Tracking 33197 objects as of 18-Feb-2026
HD Live streaming from Space Station
objects crossing your sky now

STARLINK-6343

Track STARLINK-6343 now!
10-day predictions
STARLINK-6343 is classified as:


NORAD ID: 57362
Int'l Code: 2023-099AL
Perigee: 565.5 km
Apogee: 566.9 km
Inclination: 43.0 °
Period: 95.8 minutes
Semi major axis: 6937 km
RCS: Unknown
Launch date: July 16, 2023
Source: United States (US)
Launch site: AIR FORCE EASTERN TEST RANGE (AFETR)
Your satellite tracking list
Your tracking list is empty




NASA's NSSDC Master Catalog

Two Line Element Set (TLE):
1 57362U 23099AL  26049.19828944 -.00000483  00000-0 -20680-4 0  9999
2 57362  43.0024 341.9335 0000984 264.8602  95.2128 15.02532067143337
Source of the keplerian elements: AFSPC